TimePDT,TemperatureF,Dew PointF,Humidity,Sea Level PressureIn,VisibilityMPH,Wind Direction,Wind SpeedMPH,Gust SpeedMPH,PrecipitationIn,Events,Conditions,WindDirDegrees,DateUTC
12:53 AM,68.0,37.9,33,-9999,10.0,SSW,8.1,-,N/A,,Clear,210,2013-05-15 07:53:00
1:53 AM,70.0,39.0,32,-9999,10.0,WSW,10.4,-,N/A,,Clear,240,2013-05-15 08:53:00
2:53 AM,70.0,41.0,35,-9999,10.0,WSW,12.7,-,N/A,,Clear,240,2013-05-15 09:53:00
3:53 AM,68.0,42.1,39,-9999,10.0,WSW,13.8,-,N/A,,Clear,250,2013-05-15 10:53:00
4:53 AM,66.9,42.1,40,-9999,10.0,WSW,13.8,-,N/A,,Clear,250,2013-05-15 11:53:00
5:53 AM,66.0,41.0,40,-9999,10.0,SW,12.7,-,N/A,,Clear,230,2013-05-15 12:53:00
6:53 AM,68.0,42.1,39,-9999,10.0,SSW,9.2,-,N/A,,Clear,210,2013-05-15 13:53:00
7:53 AM,73.0,41.0,31,29.94,10.0,WSW,6.9,-,N/A,,Clear,240,2013-05-15 14:53:00
8:53 AM,77.0,39.9,26,29.93,10.0,SW,10.4,-,N/A,,Clear,230,2013-05-15 15:53:00
9:53 AM,81.0,39.0,22,29.93,10.0,West,15.0,21.9,N/A,,Clear,270,2013-05-15 16:53:00
10:53 AM,84.9,36.0,17,29.91,10.0,West,20.7,27.6,N/A,,Clear,270,2013-05-15 17:53:00
11:53 AM,86.0,34.0,16,29.90,10.0,West,16.1,27.6,N/A,,Clear,280,2013-05-15 18:53:00
12:53 PM,86.0,37.0,18,29.89,10.0,SW,21.9,27.6,N/A,,Clear,230,2013-05-15 19:53:00
1:53 PM,88.0,33.1,14,29.88,9.0,WNW,19.6,28.8,N/A,,Clear,290,2013-05-15 20:53:00
2:53 PM,87.1,37.9,18,29.87,10.0,West,21.9,31.1,N/A,,Clear,270,2013-05-15 21:53:00
3:53 PM,84.0,39.9,21,29.86,10.0,WSW,21.9,28.8,N/A,,Clear,250,2013-05-15 22:53:00
4:53 PM,82.0,42.1,24,29.86,10.0,WSW,23.0,-,N/A,,Clear,240,2013-05-15 23:53:00
5:53 PM,79.0,42.1,27,29.86,10.0,WSW,20.7,32.2,N/A,,Scattered Clouds,240,2013-05-16 00:53:00
6:53 PM,75.9,44.1,32,29.86,10.0,WSW,21.9,-,N/A,,Scattered Clouds,240,2013-05-16 01:53:00
7:53 PM,73.0,45.0,37,29.87,10.0,SW,17.3,-,N/A,,Mostly Cloudy,230,2013-05-16 02:53:00
8:53 PM,70.0,46.0,42,29.88,10.0,SW,17.3,-,N/A,,Clear,220,2013-05-16 03:53:00
9:53 PM,70.0,44.1,39,29.88,10.0,SW,20.7,-,N/A,,Clear,220,2013-05-16 04:53:00
10:53 PM,69.1,43.0,39,29.88,10.0,SW,18.4,-,N/A,,Clear,220,2013-05-16 05:53:00
11:53 PM,66.0,45.0,47,29.89,10.0,SW,12.7,-,N/A,,Clear,230,2013-05-16 06:53:00